Weather History for KATY - June, 2013

Change the Weather History Date:

Friday, June 14, 2013

  Actual Average Record
Temperature  
Mean Temperature 71 °F 65 °F  
Max Temperature 82 °F 76 °F 100 °F (1979)
Min Temperature 60 °F 54 °F 37 °F (1927)
Degree Days  
Heating Degree Days 0 3  
Month to date heating degree days 88 54  
Since 1 June heating degree days 88 54  
Since 1 July heating degree days 9105 8501  
Cooling Degree Days 6 3  
Month to date cooling degree days 9 27  
Year to date cooling degree days 31 49  
Since 1 June cooling degree days 9 27  
Growing Degree Days 20 (Base 50)    
Moisture  
Dew Point 60 °F    
Average Humidity 69    
Maximum Humidity 84    
Minimum Humidity 54    
Precipitation  
Precipitation T in 0.12 in 2.13 in (1919)
Month to date precipitation 1.90 1.69  
Year to date precipitation 9.89 8.54  
Sea Level Pressure  
Sea Level Pressure 29.88 in    
Wind  
Wind Speed 11 mph (SSE)    
Max Wind Speed 25 mph    
Max Gust Speed 35 mph    
Visibility 10 miles    
Events Rain , Thunderstorm    
T = Trace of Precipitation, MM = Missing Value Source: NWS Daily Summary

Daily Weather History Graph

Daily Weather History Graph

Search for Another Location

Airport or City:

Trip Planner

Search our weather history database for the weather conditions in past years. The results will help you decide how hot, cold, wet, or windy it might be!

Date:

Astronomy

Jun. 14, 2013 Rise Set
Actual Time 5:41 AM CDT 9:16 PM CDT
Civil Twilight 5:04 AM CDT 9:53 PM CDT
Nautical Twilight 4:15 AM CDT 10:43 PM CDT
Astronomical Twilight 3:10 AM CDT 11:48 PM CDT
Moon 11:30 AM CDT (6/14) 12:11 AM CDT (6/14)
Length of Visible Light 16h 49m
Length of Day
15h 34m
Waxing Crescent, 30% of the Moon is Illuminated
Jun 14
Waxing Crescent
Jun 16
First Quarter
Jun 23
Full
Jun 29
Last Quarter
Jul 8
New

Hourly Weather History & Observations

Time (CDT) Temp. Dew Point Humidity Pressure Visibility Wind Dir Wind Speed Gust Speed Precip Events Conditions
12:11 AM 64.4 °F 53.6 °F 68% 30.05 in 10.0 mi ESE 5.8 mph - N/A Thunderstorm Overcast
12:53 AM 63.0 °F 55.0 °F 75% 30.03 in 10.0 mi ENE 4.6 mph - 0.12 in   Overcast
1:06 AM 60.8 °F 55.4 °F 82% 30.04 in 10.0 mi East 4.6 mph - 0.00 in Rain , Thunderstorm Light Rain
1:35 AM 62.6 °F 55.4 °F 77% 30.00 in 10.0 mi SE 9.2 mph - 0.00 in   Overcast
1:53 AM 64.0 °F 55.0 °F 73% 29.99 in 10.0 mi SE 10.4 mph - 0.00 in   Overcast
2:53 AM 66.0 °F 54.0 °F 65% 29.94 in 10.0 mi ESE 9.2 mph 18.4 mph N/A   Overcast
3:53 AM 63.0 °F 55.0 °F 75% 29.96 in 10.0 mi SE 9.2 mph - N/A   Mostly Cloudy
4:53 AM 62.1 °F 55.0 °F 78% 29.93 in 10.0 mi SE 6.9 mph - N/A   Clear
5:53 AM 60.1 °F 55.0 °F 83% 29.92 in 10.0 mi SE 8.1 mph - N/A   Clear
6:53 AM 62.1 °F 55.0 °F 78% 29.91 in 10.0 mi SE 10.4 mph - N/A   Clear
7:53 AM 64.0 °F 55.9 °F 75% 29.91 in 10.0 mi SSE 12.7 mph - N/A   Clear
8:53 AM 68.0 °F 55.9 °F 65% 29.90 in 10.0 mi SE 9.2 mph - N/A   Clear
9:53 AM 70.0 °F 57.0 °F 63% 29.89 in 10.0 mi SSE 12.7 mph 19.6 mph N/A   Clear
10:53 AM 75.0 °F 57.9 °F 55% 29.86 in 10.0 mi SSE 13.8 mph 21.9 mph N/A   Clear
11:53 AM 72.0 °F 57.0 °F 59% 29.86 in 10.0 mi SE 10.4 mph 18.4 mph N/A   Mostly Cloudy
12:53 PM 75.9 °F 60.1 °F 58% 29.82 in 10.0 mi SSE 18.4 mph 25.3 mph 0.00 in   Clear
1:53 PM 78.1 °F 62.1 °F 58% 29.79 in 10.0 mi SSE 21.9 mph 31.1 mph N/A   Clear
2:53 PM 79.0 °F 62.1 °F 56% 29.78 in 10.0 mi South 18.4 mph 28.8 mph N/A   Clear
3:53 PM 79.0 °F 63.0 °F 58% 29.78 in 10.0 mi South 15.0 mph 27.6 mph N/A   Partly Cloudy
4:53 PM 79.0 °F 64.9 °F 62% 29.77 in 10.0 mi South 16.1 mph 25.3 mph N/A   Mostly Cloudy
5:53 PM 79.0 °F 64.9 °F 62% 29.77 in 10.0 mi South 13.8 mph - N/A   Scattered Clouds
6:53 PM 79.0 °F 66.0 °F 64% 29.76 in 10.0 mi South 10.4 mph - N/A   Clear
7:53 PM 78.1 °F 66.9 °F 68% 29.76 in 10.0 mi South 4.6 mph - N/A   Mostly Cloudy
8:53 PM 73.9 °F 66.9 °F 79% 29.77 in 10.0 mi South 3.5 mph - N/A   Clear
9:53 PM 73.0 °F 66.9 °F 81% 29.81 in 10.0 mi SSW 9.2 mph - N/A   Scattered Clouds
10:53 PM 71.1 °F 66.0 °F 84% 29.82 in 10.0 mi WSW 4.6 mph - N/A   Partly Cloudy
11:53 PM 71.1 °F 64.9 °F 81% 29.81 in 10.0 mi NW 5.8 mph - N/A   Clear